This is the latest recevied weather packets stored in our database for station/object DH1FR-13. If no packets are shown the sender has not sent any weather packets the latest 10 day(s).
| Time | Temp. | Humidity | Pressure | Rain* | Wind** | Luminosity | Snow |
|---|---|---|---|---|---|---|---|
| 1787902800 | 20.56° C | 91% | 1013.3 hPa | 3.05 mm | 0 m/s | - | - |
| 1787902200 | 20.56° C | 93% | 1012.8 hPa | 3.05 mm | 0 m/s | - | - |
| 1787901601 | 20° C | 93% | 1012.7 hPa | 3.05 mm | 0 m/s | - | - |
| 1787901000 | 20° C | 94% | 1012.8 hPa | 3.05 mm | 0 m/s | - | - |
| 1787900400 | 20° C | 94% | 1013.2 hPa | 3.05 mm | 0 m/s | - | - |
| 1787899801 | 20° C | 95% | 1013 hPa | 3.05 mm | 0 m/s | - | - |
| 1787899201 | 19.44° C | 95% | 1013.4 hPa | 3.05 mm | 0 m/s | - | - |
| 1787898600 | 19.44° C | 97% | 1013.4 hPa | 3.05 mm | 0 m/s | - | - |
| 1787898000 | 19.44° C | 98% | 1013.1 hPa | 3.05 mm | 0 m/s | - | - |
| 1787897401 | 18.89° C | 99% | 1012.7 hPa | 3.05 mm | 0 m/s | - | - |
| 1787896800 | 18.33° C | 99% | 1012.8 hPa | 3.05 mm | 0 m/s | - | - |
| 1787896201 | 18.33° C | 99% | 1012.1 hPa | 3.05 mm | 0 m/s | - | - |
| 1787895601 | 18.33° C | 99% | 1012.3 hPa | 3.05 mm | 0 m/s | - | - |
| 1787895000 | 17.78° C | 99% | 1012.4 hPa | 3.05 mm | 0 m/s | - | - |
| 1787894400 | 17.78° C | 99% | 1012.4 hPa | 3.05 mm | 0 m/s | - | - |
| 1787893800 | 17.78° C | 99% | 1012.3 hPa | 3.05 mm | 0 m/s | - | - |
| 1787893200 | 17.78° C | 99% | 1012.4 hPa | 3.05 mm | 0 m/s | - | - |
| 1787892601 | 17.78° C | 99% | 1012.1 hPa | 3.05 mm | 0 m/s | - | - |
| 1787892001 | 18.33° C | 99% | 1012.5 hPa | 3.05 mm | 0 m/s | - | - |
| 1787891401 | 18.33° C | 99% | 1012.9 hPa | 3.05 mm | 0 m/s | - | - |
| 1787890801 | 18.33° C | 99% | 1012.6 hPa | 3.05 mm | 0 m/s | - | - |
| 1787890201 | 18.33° C | 99% | 1012.9 hPa | 3.05 mm | 0 m/s | - | - |
| 1787889602 | 18.33° C | 99% | 1012.6 hPa | 3.05 mm | 0 m/s | - | - |
| 1787889000 | 18.33° C | 99% | 1012.9 hPa | 3.05 mm | 0 m/s | - | - |
| 1787888401 | 18.89° C | 99% | 1013.4 hPa | 3.05 mm | 0 m/s | - | - |
* Rain latest hour (hover to see other rain measurements)
** Current wind speed in m/s (hover to see current wind gust speed)